Location: アルンシュタイン
(50.0000°N, 10.0000°E)
Time: 19:05:47
(UTC+02:00)

Tiros 1 despin weight - All Passes

Search period start: 11 September 2024 00:00
Search period end: 21 September 2024 00:00
Orbit: 573 x 617 km, 48.2° (Epoch: 11 September)

Date Brightness Start Highest point End Pass type
(mag) Time Alt. Az. Time Alt. Az. Time Alt. Az.
11 Sep - 05:15:53 10° S 05:18:26 15° SE 05:20:58 10° ESE visible
11 Sep - 06:54:24 10° SW 06:58:43 43° SSE 07:03:02 10° E daylight
11 Sep - 08:35:00 10° W 08:39:32 71° S 08:44:04 10° E daylight
11 Sep - 10:16:00 10° W 10:20:26 53° SSW 10:24:50 10° ESE daylight
11 Sep - 11:57:31 10° W 12:00:54 21° SW 12:04:14 10° SSE daylight
12 Sep - 05:23:44 10° SSW 05:27:14 22° SE 05:30:44 10° E visible
12 Sep - 07:03:16 10° WSW 07:07:43 55° SSE 07:12:11 10° E daylight
12 Sep - 08:44:05 10° W 08:48:38 71° S 08:53:09 10° E daylight
12 Sep - 10:25:09 10° W 10:29:26 42° SSW 10:33:41 10° SE daylight
12 Sep - 12:07:22 10° WSW 12:09:41 14° SW 12:11:58 10° S daylight
13 Sep - 05:32:05 10° SSW 05:36:05 31° SSE 05:40:06 10° E visible
13 Sep - 07:12:14 10° WSW 07:16:45 65° S 07:21:17 10° E daylight
13 Sep - 08:53:10 10° W 08:57:42 65° S 09:02:11 10° ESE daylight
13 Sep - 10:34:21 10° W 10:38:22 31° SSW 10:42:20 10° SSE daylight
14 Sep - 04:02:27 10° S 04:04:46 14° SE 04:07:05 10° ESE visible
14 Sep - 05:40:43 10° SW 05:45:00 41° SSE 05:49:18 10° E visible
14 Sep - 07:21:16 10° W 07:25:48 71° S 07:30:20 10° E daylight
14 Sep - 09:02:15 10° W 09:06:43 55° SSW 09:11:09 10° ESE daylight
14 Sep - 10:43:41 10° W 10:47:12 22° SW 10:50:40 10° SSE daylight
15 Sep - 04:10:07 10° SSW 04:13:29 21° SE 04:16:53 10° E visible
15 Sep - 05:49:31 10° WSW 05:53:56 53° SSE 05:58:23 10° E visible
15 Sep - 07:30:18 10° W 07:34:50 71° S 07:39:23 10° E daylight
15 Sep - 09:11:20 10° W 09:15:40 43° SSW 09:19:58 10° SE daylight
15 Sep - 10:53:23 10° WSW 10:55:56 15° SW 10:58:28 10° S daylight
16 Sep - 04:18:22 10° SSW 04:22:17 29° SSE 04:26:13 10° E visible
16 Sep - 05:58:25 10° WSW 06:02:55 63° S 06:07:26 10° E visible
16 Sep - 07:39:20 10° W 07:43:51 66° S 07:48:22 10° ESE daylight
16 Sep - 09:20:28 10° W 09:24:33 32° SSW 09:28:35 10° SE daylight
17 Sep - 02:48:54 10° SSE 02:50:55 13° SE 02:52:57 10° ESE visible
17 Sep - 04:26:54 10° SW 04:31:07 40° SSE 04:35:23 10° E visible
17 Sep - 06:07:22 10° WSW 06:11:54 70° S 06:16:27 10° E visible
17 Sep - 07:48:20 10° W 07:52:49 57° SSW 07:57:16 10° ESE daylight
17 Sep - 09:29:43 10° W 09:33:20 23° SW 09:36:55 10° SSE daylight
18 Sep - 02:56:21 10° S 02:59:35 20° SE 03:02:50 10° E visible
18 Sep - 04:35:37 10° WSW 04:40:00 51° SSE 04:44:26 10° E visible
18 Sep - 06:16:21 10° W 06:20:53 71° S 06:25:25 10° E visible
18 Sep - 07:57:22 10° W 08:01:43 45° SSW 08:06:03 10° SE daylight
18 Sep - 09:39:16 10° WSW 09:42:02 16° SW 09:44:46 10° S daylight
19 Sep - 03:04:28 10° SSW 03:08:18 28° SSE 03:12:11 10° E visible
19 Sep - 04:44:27 10° WSW 04:48:55 62° SSE 04:53:25 10° E visible
19 Sep - 06:25:19 10° W 06:29:50 67° S 06:34:22 10° ESE visible
19 Sep - 08:06:26 10° W 08:10:33 34° SSW 08:14:39 10° SE daylight
20 Sep - 01:35:17 10° SSE 01:36:56 12° SE 01:38:35 10° ESE night (unlit)
20 Sep - 03:12:55 10° SW 03:17:05 38° SSE 03:21:17 10° E visible
20 Sep - 04:53:20 10° WSW 04:57:50 69° S 05:02:22 10° E visible
20 Sep - 06:34:17 10° W 06:38:45 58° SSW 06:43:13 10° ESE daylight
20 Sep - 08:15:35 10° W 08:19:18 25° SSW 08:22:58 10° SSE daylight
